Weather History for Grand Island, NE

Change the Weather History Date:

Wednesday, January 15, 2014

  Actual Average Record
Temperature  
Mean Temperature 34 °F 25 °F  
Max Temperature 51 °F 36 °F 70 °F (2006)
Min Temperature 17 °F 14 °F -14 °F (2005)
Degree Days  
Heating Degree Days 31 40  
Month to date heating degree days 598 600  
Since 1 July heating degree days 3062 3119  
Cooling Degree Days 0 0  
Month to date cooling degree days 0 0  
Year to date cooling degree days 0 0  
Moisture  
Dew Point 21 °F    
Average Humidity 57    
Maximum Humidity 77    
Minimum Humidity 36    
Precipitation  
Precipitation 0.00 in 0.02 in 0.30 in (1906)
Month to date precipitation 0.14 0.24  
Year to date precipitation 0.14 0.24  
Snow  
Snow 0.00 in 0.20 in 3.00 in (2003)
Month to date snowfall 2.4 2.8  
Since 1 July snowfall 4.8 12.1  
Snow Depth -    
Sea Level Pressure  
Sea Level Pressure 30.04 in    
Wind  
Wind Speed 10 mph (WSW)    
Max Wind Speed 23 mph    
Max Gust Speed 31 mph    
Visibility 10 miles    
Events      
T = Trace of Precipitation, MM = Missing Value Source: NWS Daily Summary

Daily Weather History Graph

Daily Weather History Graph

Search for Another Location

Airport:

Trip Planner

Search our weather history database for the weather conditions in past years. The results will help you decide how hot, cold, wet, or windy it might be!

Date:

Astronomy

Jan. 15, 2014 Rise Set
Actual Time 7:55 AM CST 5:29 PM CST
Civil Twilight 7:25 AM CST 6:00 PM CST
Nautical Twilight 6:51 AM CST 6:34 PM CST
Astronomical Twilight 6:18 AM CST 7:07 PM CST
Moon 5:29 PM CST (1/15) 7:12 AM CST (1/15)
Length of Visible Light 10h 34m
Length of Day
9h 34m
Full, 100% of the Moon is Illuminated
Jan 15
Full
Jan 15
Full
Jan 23
Last Quarter
Jan 30
New
Feb 6
First Quarter

Hourly Weather History & Observations

Time (CST) Temp. Windchill Dew Point Humidity Pressure Visibility Wind Dir Wind Speed Gust Speed Precip Events Conditions
12:53 AM 24.1 °F 15.2 °F 12.0 °F 60% 30.30 in 10.0 mi NNW 8.1 mph - N/A   Mostly Cloudy
1:53 AM 21.9 °F 13.4 °F 12.0 °F 66% 30.29 in 10.0 mi NW 6.9 mph - N/A   Partly Cloudy
2:53 AM 18.0 °F 11.1 °F 10.0 °F 71% 30.29 in 10.0 mi NW 4.6 mph - N/A   Clear
3:53 AM 17.1 °F 8.7 °F 10.0 °F 74% 30.29 in 10.0 mi WNW 5.8 mph - N/A   Partly Cloudy
4:53 AM 19.9 °F 14.9 °F 12.9 °F 74% 30.27 in 10.0 mi WSW 3.5 mph - N/A   Overcast
5:53 AM 19.0 °F 11.1 °F 12.0 °F 74% 30.27 in 10.0 mi SSW 5.8 mph - N/A   Mostly Cloudy
6:53 AM 21.9 °F 14.5 °F 15.1 °F 75% 30.24 in 10.0 mi SSW 5.8 mph - N/A   Overcast
7:53 AM 23.0 °F 13.9 °F 16.0 °F 74% 30.21 in 10.0 mi SSW 8.1 mph - N/A   Overcast
8:53 AM 25.0 °F 15.5 °F 18.0 °F 75% 30.19 in 10.0 mi SSW 9.2 mph - N/A   Overcast
9:53 AM 30.9 °F 21.7 °F 21.0 °F 67% 30.16 in 10.0 mi SW 11.5 mph - N/A   Overcast
10:53 AM 35.1 °F 26.9 °F 21.9 °F 59% 30.13 in 10.0 mi SW 11.5 mph - N/A   Overcast
11:53 AM 37.9 °F 29.2 °F 21.0 °F 51% 30.08 in 10.0 mi SSW 15.0 mph - N/A   Overcast
12:53 PM 41.0 °F 32.8 °F 21.0 °F 45% 29.99 in 10.0 mi SW 16.1 mph - N/A   Overcast
1:53 PM 44.1 °F 36.8 °F 21.0 °F 40% 29.93 in 10.0 mi SSW 16.1 mph - N/A   Overcast
2:53 PM 48.9 °F - 23.0 °F 36% 29.90 in 10.0 mi WSW 15.0 mph 24.2 mph N/A   Partly Cloudy
3:53 PM 48.9 °F - 24.1 °F 38% 29.88 in 10.0 mi WSW 15.0 mph - N/A   Overcast
4:53 PM 48.0 °F - 25.0 °F 41% 29.86 in 10.0 mi SW 8.1 mph - N/A   Overcast
5:53 PM 46.9 °F - 25.0 °F 42% 29.84 in 10.0 mi SW 9.2 mph - N/A   Mostly Cloudy
6:48 PM 48.2 °F - 24.8 °F 40% 29.80 in 10.0 mi WNW 8.1 mph - N/A   Overcast
6:53 PM 48.9 °F - 25.0 °F 39% 29.85 in 10.0 mi WNW 9.2 mph - N/A   Overcast
7:53 PM 48.0 °F - 30.0 °F 50% 29.85 in 10.0 mi WNW 11.5 mph - N/A   Overcast
8:53 PM 39.9 °F 33.9 °F 28.0 °F 63% 29.85 in 10.0 mi West 9.2 mph - N/A   Clear
9:53 PM 42.1 °F 37.1 °F 28.9 °F 60% 29.86 in 10.0 mi WNW 8.1 mph - N/A   Overcast
10:53 PM 46.9 °F - 28.0 °F 48% 29.88 in 10.0 mi NW 19.6 mph - N/A   Overcast
11:53 PM 46.0 °F 38.8 °F 26.1 °F 46% 29.88 in 10.0 mi NNW 18.4 mph - N/A   Overcast